Santa Ana, CA

11:45 PM PDT on March 22, 2017 (GMT -0700)
John Wayne-Orange County

Weather History for KSNA - March, 2012

Change the Weather History Date:

Friday, March 2, 2012

  Actual Average Record
Temperature  
Mean Temperature 62 °F 58 °F  
Max Temperature 76 °F 67 °F 81 °F (2013)
Min Temperature 47 °F 50 °F 43 °F (2007)
Degree Days  
Heating Degree Days 3 7  
Month to date heating degree days 12 14  
Since 1 July heating degree days 816 920  
Cooling Degree Days 0 0  
Month to date cooling degree days 0 0  
Year to date cooling degree days 15 8  
Growing Degree Days 12 (Base 50)    
Moisture  
Dew Point 18 °F    
Average Humidity 40    
Maximum Humidity 77    
Minimum Humidity 3    
Precipitation  
Precipitation 0.00 in 0.13 in 0.58 in (2015)
Month to date precipitation 0.00 0.26  
Year to date precipitation 1.37 6.12  
Since 1 July precipitation 3.82  
Snow  
Snow 0.00 in - - ()
Month to date snowfall 0.0  
Year to date snowfall 0.0  
Snow Depth 0.00 in    
Sea Level Pressure  
Sea Level Pressure 30.14 in    
Wind  
Wind Speed 7 mph (ENE)    
Max Wind Speed 24 mph    
Max Gust Speed 37 mph    
Visibility 10 miles    
Events      
T = Trace of Precipitation, MM = Missing Value Source: NWS Daily Summary

Daily Weather History Graph

Daily Weather History Graph

Search for Another Location

Airport or City:

Trip Planner

Search our weather history database for the weather conditions in past years. The results will help you decide how hot, cold, wet, or windy it might be!

Date:

Astronomy

Mar. 02, 2012 Rise Set
Actual Time 6:17 AM PST 5:49 PM PST
Civil Twilight 5:53 AM PST 6:14 PM PST
Nautical Twilight 5:24 AM PST 6:43 PM PST
Astronomical Twilight 4:55 AM PST 7:12 PM PST
Moon 12:18 PM PST (3/2) 1:59 AM PST (3/2)
Length of Visible Light 12h 21m
Length of Day
11h 31m
Waxing Gibbous, 67% of the Moon is Illuminated
Mar 2
Waxing Gibbous
Mar 8
Full
Mar 14
Last Quarter
Mar 22
New
Mar 30
First Quarter

Hourly Weather History & Observations

Time (PST) Temp. Dew Point Humidity Pressure Visibility Wind Dir Wind Speed Gust Speed Precip Events Conditions
12:53 AM 52.0 °F 43.0 °F 71% 30.09 in 10.0 mi ESE 6.9 mph - N/A   Overcast
1:20 AM 51.8 °F 42.8 °F 71% 30.09 in 10.0 mi ESE 6.9 mph - N/A   Scattered Clouds
1:53 AM 52.0 °F 43.0 °F 71% 30.09 in 10.0 mi SE 6.9 mph - N/A   Partly Cloudy
2:53 AM 50.0 °F 42.1 °F 74% 30.09 in 10.0 mi East 4.6 mph - N/A   Scattered Clouds
3:53 AM 50.0 °F 41.0 °F 71% 30.09 in 10.0 mi Calm Calm - N/A   Clear
4:53 AM 48.0 °F 41.0 °F 77% 30.10 in 10.0 mi NNE 4.6 mph - N/A   Clear
5:53 AM 48.0 °F 39.9 °F 74% 30.11 in 10.0 mi Calm Calm - N/A   Clear
6:53 AM 48.9 °F 41.0 °F 74% 30.12 in 10.0 mi South 3.5 mph - N/A   Clear
7:53 AM 54.0 °F 41.0 °F 62% 30.13 in 10.0 mi Calm Calm - N/A   Clear
8:53 AM 61.0 °F 37.0 °F 41% 30.14 in 10.0 mi SE 4.6 mph - N/A   Clear
9:53 AM 68.0 °F 26.1 °F 21% 30.16 in 10.0 mi East 11.5 mph 17.3 mph N/A   Clear
10:53 AM 71.1 °F 15.1 °F 12% 30.17 in 10.0 mi NE 9.2 mph 19.6 mph N/A   Clear
11:53 AM 66.9 °F 43.0 °F 42% 30.16 in 10.0 mi WSW 4.6 mph - N/A   Clear
12:53 PM 73.9 °F 7.0 °F 8% 30.15 in 10.0 mi Variable 6.9 mph 25.3 mph N/A   Clear
1:53 PM 75.0 °F -9.9 °F 4% 30.14 in 10.0 mi NNE 19.6 mph 29.9 mph N/A   Clear
2:53 PM 75.0 °F -9.9 °F 4% 30.13 in 10.0 mi NE 20.7 mph 28.8 mph N/A   Clear
3:53 PM 75.0 °F -13.0 °F 4% 30.12 in 10.0 mi NNE 15.0 mph 24.2 mph N/A   Clear
4:53 PM 73.0 °F -11.9 °F 4% 30.12 in 10.0 mi NNE 15.0 mph 24.2 mph N/A   Clear
5:53 PM 70.0 °F -9.9 °F 4% 30.14 in 10.0 mi ENE 8.1 mph 21.9 mph N/A   Clear
6:53 PM 68.0 °F -11.9 °F 4% 30.16 in 10.0 mi ENE 8.1 mph - N/A   Clear
7:53 PM 66.9 °F -9.9 °F 4% 30.19 in 10.0 mi ENE 8.1 mph - N/A   Clear
8:53 PM 66.0 °F -9.0 °F 5% 30.21 in 10.0 mi ENE 5.8 mph - N/A   Clear
9:53 PM 66.0 °F -8.0 °F 5% 30.22 in 10.0 mi East 6.9 mph - N/A   Clear
10:53 PM 61.0 °F 9.0 °F 13% 30.25 in 10.0 mi WNW 5.8 mph - N/A   Clear
11:53 PM 57.0 °F 28.0 °F 33% 30.25 in 10.0 mi Calm Calm - N/A   Clear